This is the latest recevied weather packets stored in our database for station/object KI4BIY. If no packets are shown the sender has not sent any weather packets the latest 10 day(s).
| Time | Temp. | Humidity | Pressure | Rain* | Wind** | Luminosity | Snow |
|---|---|---|---|---|---|---|---|
| 1778179776 | 20.56° C | 52% | 1015.7 hPa | 0 mm | - | 611 W/m² | - |
| 1778179474 | 20.56° C | 50% | 1015.6 hPa | 0 mm | - | 712 W/m² | - |
| 1778179172 | 20° C | 52% | 1015.8 hPa | 0 mm | - | 691 W/m² | - |
| 1778178868 | 20° C | 50% | 1015.5 hPa | 0 mm | - | 707 W/m² | - |
| 1778178566 | 21.11° C | 60% | 1015.7 hPa | 0 mm | - | 565 W/m² | - |
| 1778178261 | 20.56° C | 53% | 1016 hPa | 0 mm | - | 749 W/m² | - |
| 1778177958 | 20° C | 48% | 1016.2 hPa | 0 mm | - | 745 W/m² | - |
| 1778177654 | 21.11° C | 54% | 1016.1 hPa | 0 mm | - | 744 W/m² | - |
| 1778177351 | 20.56° C | 52% | 1015.9 hPa | 0 mm | - | 721 W/m² | - |
| 1778177047 | 20.56° C | 54% | 1016.1 hPa | 0 mm | - | 675 W/m² | - |
| 1778176743 | 20.56° C | 49% | 1016.2 hPa | 0 mm | - | 638 W/m² | - |
| 1778176440 | 20.56° C | 51% | 1016.3 hPa | 0 mm | - | 662 W/m² | - |
| 1778176138 | 20° C | 53% | 1016.3 hPa | 0 mm | - | 769 W/m² | - |
| 1778175835 | 20° C | 54% | 1016.4 hPa | 0 mm | - | 765 W/m² | - |
| 1778175533 | 20° C | 52% | 1016.4 hPa | 0 mm | - | 750 W/m² | - |
| 1778175229 | 19.44° C | 59% | 1016.4 hPa | 0 mm | - | 717 W/m² | - |
| 1778174926 | 20° C | 58% | 1016.6 hPa | 0 mm | - | 700 W/m² | - |
| 1778174623 | 19.44° C | 51% | 1016.7 hPa | 0 mm | - | 617 W/m² | - |
| 1778174318 | 20° C | 55% | 1016.5 hPa | 0 mm | - | 774 W/m² | - |
| 1778174015 | 20° C | 49% | 1016.7 hPa | 0 mm | - | 690 W/m² | - |
| 1778173712 | 20° C | 55% | 1016.5 hPa | 0 mm | - | 311 W/m² | - |
| 1778173409 | 20° C | 52% | 1016.9 hPa | 0 mm | - | 438 W/m² | - |
| 1778173105 | 20° C | 60% | 1016.8 hPa | 0 mm | - | 604 W/m² | - |
| 1778172801 | 19.44° C | 55% | 1016.8 hPa | 0 mm | - | 707 W/m² | - |
| 1778172497 | 19.44° C | 53% | 1016.9 hPa | 0 mm | - | 709 W/m² | - |
* Rain latest hour (hover to see other rain measurements)
** Current wind speed in m/s (hover to see current wind gust speed)